{"data":{"norad_id":67281,"intl_designator":"2025-313AK","name":"2025-313AK","alt_names":[],"object_type":"PAYLOAD","status":"ACTIVE","operator":null,"country":"TBD","launch_date":"2025-12-28","launch_site_code":"VOSTO","launch_vehicle":null,"mission":null,"orbit_class":"UNKNOWN","rcs_meters":null,"size_class":null,"mass_kg":null,"dimensions":null,"purposes":[],"wikipedia_slug":null,"has_3d_model":false,"image_url":null,"decayed_at":null,"tle_current":{"epoch":"2026-05-25T03:07:16.953312Z","epoch_age_seconds":63885,"freshness":"FRESH","line1":"1 67281U 25313AK  26145.13005733  .00004738  00000+0  20837-3 0  9992","line2":"2 67281  97.3884 220.0427 0013607  83.7440 276.5346 15.22274839 22443","mean_motion":15.22274839,"eccentricity":0.0013607,"inclination_deg":97.3884,"raan_deg":220.0427,"arg_perigee_deg":83.744,"mean_anomaly_deg":276.5346,"bstar":0.00020837,"rev_number":2244,"period_min":94.595270387964,"perigee_km":489.62307920142,"apogee_km":508.33846750983,"semimajor_km":6877.1177733556,"source":"CELESTRAK","updated_at":"2026-05-25T13:38:06.853408Z"}}}